Temperature
16 16 15 15 15 15 15 14 14 14 14 14 14 13 13 13 13 13 13 13 13 13 13 13 13 12 12 12 12 12 12 12 12 12 12 12 12 12 12 12 12 12 12
16 16 15 15 15 15 14 14 14 14 14 14 13 13 13 13 13 13 13 13 13 13 12 12 12 12 12 12 12 12 12 12 12 12 12 12 12 12 12 12 12 12 12
16 16 15 15 15 15 14 14 14 14 14 13 13 13 13 13 13 13 13 13 12 12 12 12 12 12 12 12 12 12 12 11 11 11 11 11 11 11 11 12 12 12 12
16 15 15 15 15 15 14 14 14 14 14 13 13 13 13 13 13 12 12 12 12 12 12 12 12 12 12 12 11 11 11 11 11 11 11 11 11 11 11 11 11 11 11
16 15 15 15 15 15 14 14 14 14 13 13 13 13 13 12 12 12 12 12 12 12 12 12 12 11 11 11 11 11 11 11 11 11 10 10 10 10 10 10 10 10 11
16 15 15 15 14 14 14 14 14 13 13 13 13 13 13 12 12 12 12 12 12 11 11 11 11 11 11 11 11 11 10 10 10 10 10 10 10 9 9 9 9 10 10
16 15 15 15 14 14 14 14 13 13 13 13 13 13 12 12 12 12 11 11 11 11 11 11 11 11 11 10 10 10 10 10 9 9 9 9 9 9 9 9 9 9 9
15 15 15 15 14 14 14 14 13 13 13 13 13 12 12 12 11 11 11 11 11 11 11 11 10 10 10 10 10 10 10 9 9 9 9 9 8 8 8 8 8 8 8
15 15 15 15 14 14 14 13 13 13 13 13 12 12 12 11 11 11 11 11 11 10 10 10 10 10 10 10 10 9 9 9 9 8 8 8 8 8 8 8 8 8 8
15 15 15 14 14 14 14 13 13 13 13 12 12 12 11 11 11 10 10 10 10 10 10 10 10 10 9 9 9 9 9 9 8 8 8 8 8 8 8 7 7 7 7
15 15 15 14 14 14 13 13 13 12 12 12 12 11 11 11 10 10 10 10 10 10 10 10 9 9 9 9 8 8 8 8 8 7 7 7 7 7 7 7 7 6 6
15 15 14 14 14 13 13 13 12 12 12 12 11 11 11 11 10 10 10 10 9 9 9 9 9 8 8 8 8 8 7 7 7 7 7 7 7 6 6 6 6 6 5
15 14 14 14 13 13 13 13 12 12 12 11 11 11 11 10 10 10 10 9 9 9 9 9 8 8 8 8 7 7 7 7 6 6 6 6 6 6 6 6 6 5 5
15 14 14 13 13 13 12 12 12 12 11 11 11 11 10 10 10 10 9 9 9 8 8 8 8 7 7 7 7 7 6 6 6 5 5 5 5 5 5 5 5 5 5
14 14 14 13 13 13 12 12 12 11 11 11 10 10 10 10 9 9 9 8 8 8 8 7 7 7 7 7 6 6 6 6 5 5 5 5 5 5 4 4 4 4 4
14 14 13 13 12 12 12 11 11 11 10 10 10 9 9 9 9 8 8 8 8 7 7 7 7 6 6 6 6 5 5 5 5 4 4 4 4 4 4 4 3 3 3
14 13 13 12 12 12 11 11 11 10 10 10 9 9 9 8 8 8 8 7 7 7 7 6 6 6 6 5 5 5 5 4 4 4 4 4 3 3 3 3 3 3 3
13 13 12 12 12 11 11 11 10 10 10 10 9 9 8 8 8 7 7 7 7 6 6 6 6 5 5 5 5 4 4 4 4 4 3 3 3 3 2 2 2 2 2
13 12 12 12 11 11 11 10 10 10 9 9 9 8 8 8 7 7 7 6 6 6 6 5 5 5 5 4 4 4 4 3 3 3 3 2 2 2 2 2 1 1 1
12 12 12 11 11 11 10 10 9 9 9 8 8 8 7 7 7 6 6 6 5 5 5 5 4 4 4 4 4 3 3 3 3 2 2 2 2 1 1 1 1 1 1
12 11 11 11 11 10 10 10 9 9 8 8 8 7 7 7 6 6 6 5 5 5 4 4 4 4 3 3 3 3 3 2 2 2 2 1 1 1 1 0 0 0 0
11 11 11 10 10 10 9 9 9 8 8 7 7 7 6 6 6 5 5 5 5 4 4 4 3 3 3 3 2 2 2 2 1 1 1 1 0 0 0 -0 -0 -0 -0
11 10 10 10 9 9 9 8 8 7 7 7 6 6 6 5 5 5 5 4 4 4 4 3 3 3 3 2 2 2 1 1 1 0 0 -0 -0 -0 -0 -1 -1 -1 -1
10 10 9 9 9 8 8 8 7 7 7 6 6 5 5 5 5 4 4 4 4 3 3 3 3 2 2 2 2 1 1 1 0 -0 -0 -0 -0 -1 -1 -1 -1 -1 -1
9 9 9 9 8 8 8 7 7 6 6 6 5 5 5 4 4 4 4 3 3 3 3 3 2 2 2 1 1 1 1 0 0 -0 -1 -1 -1 -1 -1 -1 -1 -1 -1
9 9 8 8 8 7 7 7 6 6 5 5 5 4 4 4 3 3 3 3 3 2 2 2 2 1 1 1 1 0 0 -0 -0 -1 -1 -1 -1 -1 -1 -1 -1 -2 -2
Wind_Speed
5 5 5 4 4 4 3 2 2 3 3 3 3 4 4 4 4 4 4 4 5 4 4 4 4 3 3 3 3 2 2 2 1 2 2 3 4 6 9 11 11 10 10
5 6 5 5 5 4 3 2 3 3 3 4 4 4 4 4 4 4 4 4 4 4 4 4 4 3 4 3 2 2 2 1 1 1 3 3 4 5 6 6 8 9 9
6 6 6 5 5 4 3 2 3 3 3 4 4 4 3 3 4 4 4 4 3 3 3 3 3 3 3 3 2 2 2 2 1 0 2 2 3 4 4 5 6 6 8
7 6 6 5 5 4 3 3 3 3 3 3 3 3 3 3 3 3 4 4 4 4 3 3 3 2 2 2 2 2 2 2 2 1 2 2 3 3 3 3 5 5 5
7 6 6 5 4 4 4 3 3 3 4 3 3 3 3 3 3 3 3 4 3 4 4 4 4 5 5 3 3 2 2 1 2 2 2 2 3 3 4 3 4 5 4
8 6 6 5 5 4 4 4 4 3 3 3 3 3 3 2 4 5 4 3 3 3 3 3 4 6 7 7 7 6 4 2 1 1 1 2 3 3 3 3 3 4 4
7 6 6 6 5 4 4 4 4 3 3 3 2 3 2 1 4 5 5 4 3 2 2 3 3 5 6 4 6 7 7 6 4 1 1 3 3 4 3 3 3 3 4
7 6 6 6 6 5 5 4 3 3 3 2 2 2 2 1 3 4 5 4 3 2 2 1 2 3 3 4 3 4 4 5 5 3 2 4 4 4 3 3 4 4 4
6 6 6 7 6 6 5 4 3 3 3 2 2 2 2 1 2 4 4 3 3 2 2 2 2 2 4 5 3 3 4 5 7 7 7 7 8 8 6 2 3 3 4
7 7 6 7 7 7 6 5 3 3 3 3 3 2 2 1 1 3 4 3 2 1 2 3 4 4 5 4 2 2 3 5 5 6 7 8 8 8 8 3 2 2 4
6 6 6 6 6 6 5 4 4 4 4 3 3 1 1 0 0 2 3 2 2 1 1 2 3 6 6 5 3 1 4 4 3 3 4 5 5 5 6 6 3 3 4
7 7 6 6 5 5 6 4 4 5 5 3 2 1 1 2 1 1 2 2 2 2 1 2 3 5 5 6 4 5 6 5 2 3 3 4 4 5 5 7 8 7 7
8 7 6 5 5 5 6 6 4 4 4 3 2 1 1 1 1 1 1 1 1 1 1 2 3 5 5 4 6 7 5 3 2 3 4 5 4 5 6 6 7 8 8
8 7 6 6 5 4 4 4 4 4 4 3 3 2 1 0 1 1 0 1 1 1 1 3 4 4 3 4 5 5 3 3 3 3 5 5 5 4 4 4 5 5 5
8 6 6 5 6 5 4 3 4 4 5 5 4 4 3 2 3 3 2 1 1 1 0 1 2 2 3 3 4 4 3 3 4 4 4 5 5 6 6 4 4 4 5
7 6 5 5 4 4 4 2 2 2 3 4 4 4 3 3 2 2 2 2 2 1 1 1 2 2 3 4 4 4 4 4 4 4 5 5 6 7 7 6 5 5 7
8 7 5 5 5 5 4 4 2 1 2 1 2 3 3 2 2 2 2 1 0 1 0 1 3 3 4 4 4 4 5 5 5 5 5 6 6 6 7 7 7 7 7
7 7 7 5 5 5 5 4 4 4 2 1 1 1 1 2 1 1 1 2 1 1 1 3 4 4 4 4 5 5 5 5 5 5 6 6 6 7 7 8 8 8 9
7 5 5 5 4 4 4 4 3 3 3 1 0 1 2 1 1 1 1 1 2 2 3 3 4 4 4 5 5 5 5 6 6 6 6 7 6 7 8 8 8 11 10
5 8 7 5 5 4 4 4 4 3 3 2 2 2 0 1 0 1 1 1 2 3 4 4 4 5 5 5 5 5 5 6 6 6 6 7 7 7 8 9 9 9 9
5 6 8 5 5 5 5 4 4 4 3 3 3 3 3 2 2 3 3 3 4 4 4 4 4 5 5 4 5 6 6 6 6 6 7 7 7 7 8 8 9 9 9
5 5 5 5 4 4 4 4 4 4 4 3 2 2 3 2 2 3 3 4 4 4 4 4 4 4 5 5 5 6 6 7 7 7 7 7 7 8 8 8 9 9 9
6 6 5 4 4 5 4 3 4 4 3 3 3 2 2 3 3 4 4 4 3 4 5 5 5 5 7 8 8 7 6 7 7 8 8 8 8 8 8 9 11 12 11
6 6 5 4 4 4 4 3 3 3 3 3 3 3 3 3 4 4 4 3 4 4 5 6 7 8 10 10 10 10 11 12 12 11 10 9 10 9 9 9 10 12 12
6 5 5 5 4 4 3 3 3 3 3 3 3 3 3 3 3 3 3 3 4 4 6 7 7 8 10 12 12 12 13 15 15 13 11 9 9 10 10 11 11 12 12
6 6 5 4 4 4 4 3 3 3 3 3 2 2 2 3 3 3 3 3 3 4 5 7 8 10 11 12 12 14 16 17 16 16 13 9 9 9 10 10 12 11 12
Wind_Direction
147 140 130 128 122 116 114 113 108 89 84 83 81 78 72 65 64 70 63 59 63 49 42 51 38 32 39 31 40 46 50 88 138 306 310 324 350 353 353 355 357 360 0
145 135 130 123 116 113 110 107 100 94 83 85 85 82 75 68 65 75 70 61 65 56 38 43 28 37 38 27 34 33 27 47 122 322 326 335 335 337 342 348 354 358 358
138 134 130 128 129 132 130 117 104 100 90 80 86 87 80 76 76 77 78 66 59 52 42 43 23 42 32 20 25 20 3 23 69 86 321 322 318 332 341 344 347 347 353
142 142 143 149 149 146 133 119 111 108 101 94 90 90 89 86 86 83 79 70 58 45 37 39 31 43 35 20 23 9 12 26 26 22 333 324 317 318 338 337 338 338 336
147 151 159 152 137 127 121 116 108 103 103 99 92 78 79 92 99 103 90 81 67 47 33 29 31 42 40 34 34 18 36 35 19 10 343 340 332 333 329 318 321 321 321
155 160 154 141 131 128 127 120 110 104 97 91 89 87 81 82 104 111 108 91 71 60 39 19 26 35 31 29 31 32 33 38 7 354 326 320 305 300 305 312 314 331 321
157 156 153 147 143 145 138 125 124 124 110 100 95 94 86 78 106 111 109 103 88 74 57 32 28 21 22 21 21 22 16 15 9 269 271 281 286 285 295 303 295 286 279
156 159 159 154 152 146 137 138 142 131 125 127 124 118 104 86 103 107 104 93 86 69 56 43 29 356 358 18 25 14 357 346 343 344 272 276 280 279 260 263 270 286 286
163 169 167 160 155 151 150 152 150 137 130 130 122 121 113 99 103 112 108 100 84 48 14 18 18 351 354 15 30 7 349 336 344 346 341 338 336 336 336 345 337 333 308
174 171 162 158 157 160 162 158 149 144 143 127 106 109 128 157 106 114 116 114 102 41 355 349 356 354 356 7 20 1 336 318 328 339 344 344 344 342 342 338 286 295 295
159 149 146 151 156 156 152 148 141 134 121 116 110 81 68 317 48 109 120 130 155 144 334 326 325 345 352 352 351 312 306 318 325 328 329 330 333 333 330 324 294 251 266
142 141 145 147 150 147 141 136 132 131 126 125 115 72 358 336 354 90 114 126 141 151 243 280 303 335 347 350 347 335 336 345 343 338 333 325 320 314 309 309 305 289 266
140 145 146 141 137 141 145 143 134 135 140 149 148 167 269 323 335 41 96 104 126 156 250 294 323 338 346 346 341 342 348 347 336 324 312 300 291 290 301 306 306 304 297
147 150 147 143 138 136 140 146 149 158 161 164 169 189 212 271 287 293 295 353 1 352 336 337 342 348 347 332 335 337 333 307 302 289 291 291 295 298 297 298 301 309 305
149 150 149 149 151 149 149 158 167 183 180 177 190 188 183 214 237 212 181 210 224 232 331 9 1 346 340 331 326 321 316 315 311 299 297 301 303 303 299 295 290 295 292
150 154 157 155 151 151 147 114 83 149 168 174 175 176 202 216 217 203 220 234 238 210 71 350 306 302 297 300 305 308 304 300 294 293 294 295 297 299 300 299 291 287 289
160 161 157 156 156 158 158 156 149 51 68 151 189 188 192 205 207 204 210 209 230 105 98 274 280 284 284 288 288 287 289 289 286 286 288 290 292 295 297 298 297 294 291
155 159 158 163 164 164 167 168 165 163 168 274 301 255 218 214 220 217 167 89 12 342 260 264 272 277 280 281 281 283 286 291 289 287 287 288 289 293 296 296 295 293 294
153 158 158 157 157 157 156 155 159 165 173 190 299 324 311 312 8 7 110 142 234 263 264 267 271 274 277 280 281 282 283 286 287 287 286 286 289 291 293 294 294 294 294
156 159 155 153 151 150 153 158 165 171 177 187 212 239 285 64 4 293 257 245 248 259 261 264 272 275 278 281 284 285 287 288 289 286 286 287 288 288 290 293 294 294 293
149 157 153 149 158 164 166 173 178 179 189 205 229 234 208 198 225 243 249 249 248 255 261 267 274 280 279 282 286 286 287 289 288 288 288 289 291 292 292 291 291 291 291
151 154 156 159 162 165 171 175 176 184 198 210 238 254 235 229 241 248 249 253 254 255 261 262 269 274 271 273 278 284 287 289 292 292 292 293 293 292 292 292 293 294 294
151 151 151 154 160 167 166 172 178 187 200 215 225 233 236 239 244 248 253 255 263 276 284 282 277 282 289 290 286 282 282 286 289 292 293 294 294 294 294 294 295 296 295
154 155 156 157 156 162 172 182 189 194 201 213 221 229 238 243 249 257 263 270 276 281 286 287 282 282 289 298 297 294 292 293 297 296 291 290 293 293 292 293 294 294 294
154 155 158 162 166 171 176 183 191 199 207 214 220 232 245 250 257 265 269 272 274 279 286 292 293 295 297 300 300 299 300 301 301 302 299 294 290 290 292 293 295 296 294
158 159 161 163 167 171 176 187 197 202 210 219 221 226 233 244 255 262 268 270 278 287 290 295 297 300 302 303 302 303 305 305 304 303 302 297 292 291 293 293 294 296 297
Height
1562 1563 1565 1566 1567 1568 1569 1570 1570 1570 1570 1570 1571 1570 1570 1570 1570 1570 1569 1569 1569 1568 1567 1567 1566 1565 1564 1564 1563 1562 1561 1560 1559 1558 1557 1556 1554 1553 1551 1550 1548 1546 1545
1562 1563 1564 1566 1567 1568 1569 1570 1570 1570 1570 1571 1571 1571 1571 1571 1570 1570 1570 1569 1569 1568 1568 1567 1566 1565 1564 1564 1563 1562 1561 1559 1559 1557 1556 1554 1553 1551 1550 1548 1546 1545 1543
1561 1562 1564 1565 1566 1567 1568 1569 1570 1570 1570 1571 1571 1571 1571 1571 1571 1570 1570 1570 1569 1568 1568 1567 1566 1565 1564 1563 1562 1561 1560 1559 1557 1556 1554 1553 1551 1550 1548 1546 1544 1543 1541
1560 1561 1563 1564 1566 1567 1568 1569 1569 1570 1570 1570 1571 1571 1571 1571 1571 1570 1570 1569 1569 1568 1567 1566 1565 1564 1563 1562 1561 1560 1559 1557 1556 1554 1553 1551 1549 1547 1546 1543 1541 1540 1538
1558 1560 1562 1564 1565 1566 1567 1568 1569 1569 1570 1570 1570 1570 1570 1570 1570 1570 1570 1569 1568 1567 1567 1566 1565 1564 1563 1561 1560 1558 1557 1556 1554 1552 1551 1549 1547 1545 1543 1541 1539 1537 1536
1557 1559 1561 1562 1564 1565 1566 1567 1568 1569 1569 1570 1570 1570 1570 1570 1570 1569 1569 1568 1568 1567 1566 1565 1564 1563 1562 1560 1559 1557 1556 1554 1552 1551 1549 1547 1545 1544 1542 1540 1537 1535 1532
1555 1557 1559 1561 1562 1564 1565 1566 1567 1568 1568 1569 1569 1569 1569 1569 1569 1569 1568 1568 1567 1566 1565 1564 1563 1562 1561 1559 1557 1556 1554 1552 1551 1549 1547 1545 1543 1542 1540 1537 1535 1533 1530
1553 1555 1557 1559 1561 1562 1563 1564 1566 1566 1567 1568 1568 1568 1568 1568 1568 1568 1567 1567 1566 1565 1564 1563 1562 1560 1559 1558 1556 1554 1552 1551 1549 1547 1545 1543 1541 1539 1537 1535 1533 1530 1528
1551 1553 1555 1557 1559 1560 1561 1563 1564 1565 1566 1566 1567 1567 1567 1567 1567 1567 1566 1566 1565 1564 1563 1562 1560 1559 1557 1556 1554 1552 1550 1549 1547 1545 1543 1541 1539 1537 1535 1532 1529 1527 1524
1549 1551 1553 1555 1557 1558 1559 1561 1562 1563 1564 1565 1565 1566 1566 1566 1566 1566 1565 1564 1563 1562 1561 1560 1559 1557 1556 1554 1552 1550 1548 1546 1544 1542 1541 1539 1536 1534 1532 1529 1527 1524 1520
1547 1549 1552 1553 1555 1556 1558 1559 1560 1561 1562 1563 1564 1564 1564 1565 1564 1564 1563 1563 1562 1560 1559 1558 1557 1555 1553 1552 1550 1548 1546 1544 1542 1539 1537 1535 1533 1530 1528 1526 1523 1521 1518
1545 1547 1549 1551 1553 1555 1556 1557 1559 1560 1560 1561 1562 1562 1562 1563 1562 1562 1561 1561 1560 1558 1557 1556 1554 1553 1551 1549 1547 1545 1543 1541 1539 1536 1534 1531 1528 1526 1524 1521 1519 1517 1514
1543 1545 1547 1549 1551 1553 1554 1555 1556 1557 1558 1559 1559 1559 1560 1560 1560 1560 1559 1558 1557 1556 1555 1553 1552 1550 1548 1546 1544 1542 1540 1538 1535 1532 1530 1527 1525 1522 1519 1517 1514 1511 1509
1540 1543 1545 1547 1549 1550 1552 1553 1554 1555 1556 1556 1557 1557 1557 1557 1557 1557 1556 1556 1555 1553 1552 1551 1549 1547 1546 1544 1541 1539 1537 1534 1531 1529 1526 1523 1521 1518 1515 1511 1508 1505 1502
1538 1540 1542 1544 1546 1548 1549 1551 1552 1553 1554 1554 1554 1555 1555 1554 1554 1554 1554 1552 1551 1550 1549 1547 1546 1544 1542 1540 1537 1535 1533 1530 1528 1525 1522 1519 1516 1513 1509 1506 1503 1500 1496
1535 1537 1539 1541 1543 1545 1546 1548 1549 1550 1551 1552 1552 1552 1552 1552 1552 1551 1550 1549 1548 1547 1546 1544 1542 1540 1538 1536 1533 1531 1528 1526 1523 1520 1517 1514 1510 1507 1504 1501 1498 1495 1491
1532 1534 1537 1539 1540 1542 1543 1545 1546 1547 1548 1548 1549 1549 1549 1549 1548 1548 1547 1546 1545 1544 1542 1540 1538 1536 1534 1532 1529 1527 1524 1521 1518 1515 1512 1509 1506 1502 1499 1495 1492 1488 1485
1530 1532 1534 1536 1537 1539 1540 1542 1543 1544 1544 1545 1546 1546 1546 1545 1545 1544 1544 1542 1541 1540 1538 1536 1534 1533 1530 1528 1525 1522 1519 1516 1513 1510 1507 1504 1500 1497 1493 1489 1486 1483 1479
1527 1529 1531 1533 1535 1536 1538 1539 1540 1541 1541 1541 1541 1542 1542 1541 1541 1541 1539 1538 1537 1535 1534 1532 1530 1528 1526 1523 1520 1517 1514 1511 1508 1505 1501 1498 1495 1491 1487 1484 1480 1477 1474
1524 1526 1528 1530 1532 1533 1534 1535 1536 1537 1537 1537 1537 1538 1537 1537 1536 1536 1535 1534 1533 1531 1530 1528 1526 1523 1521 1518 1515 1512 1509 1506 1502 1499 1495 1492 1489 1485 1481 1478 1474 1471 1467
1521 1523 1525 1527 1528 1529 1531 1532 1532 1533 1533 1534 1534 1534 1534 1533 1532 1532 1531 1530 1528 1527 1525 1523 1520 1518 1516 1513 1510 1507 1503 1500 1496 1493 1489 1486 1482 1479 1475 1472 1468 1465 1461
1518 1520 1522 1523 1525 1526 1527 1528 1528 1529 1529 1530 1530 1530 1529 1529 1528 1528 1526 1525 1524 1522 1520 1518 1515 1513 1510 1507 1504 1501 1497 1494 1490 1487 1483 1480 1476 1472 1469 1465 1461 1458 1454
1515 1517 1518 1520 1521 1522 1523 1524 1525 1525 1526 1526 1526 1526 1525 1525 1524 1523 1522 1520 1519 1517 1515 1513 1510 1507 1505 1502 1499 1495 1492 1488 1484 1481 1477 1473 1470 1466 1463 1459 1455 1451 1448
1512 1514 1515 1516 1518 1519 1520 1521 1521 1522 1522 1522 1522 1522 1521 1520 1519 1518 1517 1515 1514 1512 1510 1507 1505 1502 1499 1496 1493 1489 1486 1482 1478 1475 1471 1468 1464 1460 1456 1452 1449 1445 1441
1509 1510 1512 1513 1514 1515 1516 1517 1517 1518 1518 1518 1517 1517 1517 1516 1515 1513 1512 1510 1508 1506 1504 1502 1499 1496 1493 1490 1487 1483 1480 1476 1473 1469 1465 1462 1458 1454 1450 1446 1442 1439 1435
1506 1507 1509 1510 1511 1512 1513 1513 1513 1514 1514 1513 1513 1513 1512 1511 1510 1508 1507 1505 1503 1501 1498 1496 1493 1490 1487 1484 1480 1477 1474 1470 1466 1463 1460 1456 1452 1448 1444 1440 1436 1433 1429